Home > Weather > Marengo > Past weeks

Flag for USA Weather for the Past 2 Weeks in Marengo, Indiana, USA

Now
60 °F

Rain. Fog.


Feels Like: 60 °F
Forecast: 57 / 70 °F
Wind: 7 mph from Northeast

Location: Bowling Green-Warren County Regional Airport

Current Time: Apr 30, 2016 at 9:24:44 AM

Latest Report: Apr 30, 2016 at 8:53 AM


Visibility: 3 mi

Pressure: 29.94 "Hg

Humidity: 96%

Dew Point: 59 °F

Location of MarengoLocation

Historic Weather in Marengo — Graph

°F

Marengo Temperature Yesterday

Maximum temperature yesterday: 74 °F (at 1:53 PM)
Minimum temperature yesterday: 53 °F (at 5:53 AM)
Average temperature yesterday: 65 °F

High & Low Weather Summary for the Past Weeks

 TemperatureHumidityPressure
High86 °F (Apr 26, 4:53 PM)97% (Apr 22, 5:53 AM)30.39 "Hg (Apr 22, 5:53 AM)
Low46 °F (Apr 18, 6:53 AM)24% (Apr 18, 2:53 PM)29.70 "Hg (Apr 27, 7:53 PM)
Average67 °F63%30.02 "Hg
* Reported Apr 15 7:53 AM — Apr 30 7:53 AM, Marengo, Weather by CustomWeather, © 2016

Note: Actual official high and low records may vary slightly from our data, if they occured in-between our weather recording intervals... More about our weather records

Advertising

Marengo Weather History for the Previous 24 Hours

Scroll right to see more
 ConditionsComfort  
Time TempWeatherWind HumidityBarometerVisibility
7:53 AM
Sat, Apr 30
62 °FRain. Fog.3 mph86%29.95 "Hg2 mi
6:53 AM63 °FBroken clouds.6 mph75%29.87 "Hg10 mi
5:53 AM63 °FMostly cloudy.7 mph75%29.89 "Hg10 mi
4:53 AM63 °FOvercast.5 mph78%29.91 "Hg10 mi
3:53 AM63 °FClear.6 mph78%29.91 "Hg10 mi
2:53 AM65 °FPassing clouds.6 mph73%29.92 "Hg10 mi
1:53 AM64 °FPassing clouds.7 mph75%29.92 "Hg10 mi
12:53 AM65 °FPassing clouds.7 mph76%29.94 "Hg10 mi
11:53 PM
Fri, Apr 29
65 °FMostly cloudy.6 mph81%29.97 "Hg10 mi
10:53 PM65 °FOvercast.7 mph85%29.98 "Hg10 mi
9:53 PM66 °FOvercast.6 mph81%29.98 "Hg10 mi
8:53 PM66 °FOvercast.3 mph81%29.97 "Hg10 mi
7:53 PM69 °FOvercast.No wind70%29.98 "Hg10 mi
6:53 PM70 °FMostly cloudy.No wind66%29.99 "Hg10 mi
5:53 PM72 °FBroken clouds.6 mph59%29.99 "Hg10 mi
4:53 PM73 °FSunny.No wind57%30.01 "Hg10 mi
3:53 PM74 °FSunny.6 mph53%30.01 "Hg10 mi
2:53 PM73 °FSunny.3 mph53%30.01 "Hg10 mi
1:53 PM74 °FSunny.6 mph53%30.01 "Hg10 mi
12:53 PM73 °FSunny.No wind55%30.03 "Hg10 mi
11:53 AM71 °FSunny.7 mph59%30.01 "Hg10 mi
10:53 AM69 °FSunny.9 mph63%30.02 "Hg10 mi
9:53 AM66 °FSunny.8 mph68%30.03 "Hg10 mi
Weather by CustomWeather, © 2016

See weather overviewHow to use our weather pages